| time (UTC) | temp F | wind direction | speed MPH | gust MPH | rain 1hr in | rain 24hr in | rain mn in | humidity % | barometer mb |
| 20260507064342 | 65 | 360 | 1.0 | 4.0 | 0.00 | 0.00 | 0.00 | 73 | 1012.1 |
| 20260507063324 | 65 | 360 | 3.0 | 4.0 | 0.00 | 0.00 | 0.00 | 73 | 1012.0 |
| 20260507062330 | 64 | 360 | 2.0 | 5.0 | 0.00 | 0.00 | 0.00 | 73 | 1012.0 |
| 20260507061326 | 64 | 360 | 0.0 | 4.0 | 0.00 | 0.00 | 0.00 | 73 | 1011.9 |
| 20260507060334 | 63 | 360 | 2.0 | 4.0 | 0.00 | 0.00 | 0.00 | 73 | 1011.9 |
| 20260507055322 | 63 | 360 | 1.0 | 2.0 | 0.00 | 0.08 | 0.00 | 74 | 1011.9 |
| 20260507054329 | 62 | 360 | 1.0 | 2.0 | 0.00 | 0.08 | 0.00 | 75 | 1011.7 |
| 20260507053328 | 61 | 360 | 2.0 | 4.0 | 0.00 | 0.08 | 0.00 | 75 | 1011.7 |
| 20260507052347 | 60 | 360 | 3.0 | 4.0 | 0.00 | 0.08 | 0.00 | 75 | 1011.5 |
| 20260507051333 | 59 | 360 | 2.0 | 8.0 | 0.00 | 0.08 | 0.00 | 76 | 1011.3 |
| 20260507050349 | 58 | 360 | 4.0 | 8.0 | 0.00 | 0.08 | 0.00 | 77 | 1011.2 |
| 20260507045333 | 58 | 360 | 4.0 | 6.0 | 0.00 | 0.47 | 0.00 | 79 | 1011.1 |
| 20260507044321 | 58 | 360 | 4.0 | 5.0 | 0.00 | 0.47 | 0.00 | 79 | 1011.1 |
| 20260507043333 | 58 | 360 | 3.0 | 4.0 | 0.00 | 0.47 | 0.00 | 79 | 1010.9 |
| 20260507042321 | 58 | 360 | 4.0 | 8.0 | 0.00 | 0.47 | 0.00 | 79 | 1011.1 |
| 20260507041335 | 58 | 360 | 3.0 | 6.0 | 0.00 | 0.47 | 0.00 | 79 | 1011.0 |
| 20260507040322 | 58 | 360 | 4.0 | 5.0 | 0.00 | 0.47 | 0.00 | 79 | 1010.9 |
| 20260507035327 | 58 | 360 | 2.0 | 4.0 | 0.00 | 0.47 | 0.00 | 80 | 1010.9 |
| 20260507034335 | 58 | 360 | 3.0 | 5.0 | 0.00 | 0.47 | 0.00 | 79 | 1010.8 |
| 20260507033332 | 58 | 360 | 2.0 | 4.0 | 0.00 | 0.47 | 0.00 | 80 | 1010.7 |
| 20260507032335 | 58 | 360 | 2.0 | 5.0 | 0.00 | 0.47 | 0.00 | 80 | 1010.8 |
| 20260507031323 | 58 | 360 | 4.0 | 6.0 | 0.00 | 0.47 | 0.00 | 80 | 1010.8 |
| 20260507030336 | 58 | 360 | 5.0 | 8.0 | 0.00 | 0.47 | 0.00 | 79 | 1010.7 |
| 20260507025342 | 58 | 360 | 4.0 | 6.0 | 0.00 | 0.47 | 0.00 | 79 | 1010.7 |
| 20260507024333 | 58 | 360 | 4.0 | 6.0 | 0.00 | 0.47 | 0.00 | 79 | 1010.7 |
| 20260507023335 | 59 | 360 | 5.0 | 9.0 | 0.00 | 0.47 | 0.00 | 78 | 1010.7 |
| 20260507022325 | 59 | 360 | 5.0 | 9.0 | 0.00 | 0.47 | 0.00 | 79 | 1010.6 |
| 20260507021340 | 59 | 360 | 3.0 | 6.0 | 0.00 | 0.47 | 0.00 | 80 | 1010.5 |
| 20260507020327 | 58 | 360 | 4.0 | 8.0 | 0.00 | 0.47 | 0.00 | 81 | 1010.5 |
| 20260507015339 | 59 | 360 | 2.0 | 4.0 | 0.00 | 0.47 | 0.00 | 81 | 1010.5 |
| 20260507014348 | 59 | 360 | 3.0 | 4.0 | 0.00 | 0.47 | 0.00 | 81 | 1010.3 |
| 20260507013327 | 59 | 360 | 3.0 | 6.0 | 0.00 | 0.47 | 0.00 | 82 | 1010.3 |
| 20260507012345 | 59 | 360 | 4.0 | 5.0 | 0.00 | 0.47 | 0.00 | 82 | 1010.3 |
| 20260507011331 | 59 | 360 | 5.0 | 6.0 | 0.00 | 0.47 | 0.00 | 82 | 1010.3 |
| 20260507010336 | 59 | 360 | 2.0 | 5.0 | 0.00 | 0.47 | 0.00 | 82 | 1010.4 |
| 20260507005349 | 59 | 360 | 3.0 | 5.0 | 0.00 | 0.59 | 0.00 | 83 | 1010.4 |
| 20260507004339 | 58 | 360 | 2.0 | 4.0 | 0.00 | 0.59 | 0.00 | 82 | 1010.5 |
| 20260507003325 | 59 | 360 | 3.0 | 5.0 | 0.00 | 0.59 | 0.00 | 82 | 1010.5 |
| 20260507002339 | 59 | 360 | 4.0 | 6.0 | 0.00 | 0.59 | 0.00 | 82 | 1010.5 |
| 20260507001324 | 59 | 360 | 3.0 | 5.0 | 0.00 | 0.59 | 0.00 | 82 | 1010.4 |
| 20260507000321 | 59 | 360 | 5.0 | 9.0 | 0.00 | 0.59 | 0.00 | 82 | 1010.3 |
| 20260506235324 | 59 | 360 | 4.0 | 6.0 | 0.00 | 0.91 | 0.00 | 82 | 1010.3 |
| 20260506234329 | 59 | 360 | 4.0 | 5.0 | 0.00 | 0.91 | 0.00 | 81 | 1010.4 |
| 20260506233328 | 59 | 360 | 2.0 | 6.0 | 0.00 | 0.91 | 0.00 | 81 | 1010.4 |
| 20260506232341 | 59 | 360 | 2.0 | 6.0 | 0.00 | 0.91 | 0.00 | 81 | 1010.4 |
| 20260506231322 | 59 | 360 | 3.0 | 5.0 | 0.00 | 0.91 | 0.00 | 80 | 1010.4 |
| 20260506230326 | 59 | 360 | 3.0 | 4.0 | 0.00 | 0.91 | 0.00 | 79 | 1010.3 |
| 20260506225350 | 59 | 360 | 3.0 | 6.0 | 0.00 | 0.91 | 0.00 | 80 | 1010.3 |
| 20260506224334 | 59 | 360 | 4.0 | 5.0 | 0.00 | 0.91 | 0.00 | 81 | 1010.2 |
| 20260506223346 | 60 | 360 | 4.0 | 5.0 | 0.00 | 0.91 | 0.00 | 82 | 1010.1 |
| 20260506222347 | 60 | 360 | 2.0 | 5.0 | 0.00 | 0.91 | 0.00 | 82 | 1010.1 |
| 20260506221331 | 60 | 360 | 4.0 | 6.0 | 0.00 | 0.91 | 0.00 | 82 | 1010.2 |
| 20260506220337 | 60 | 360 | 4.0 | 6.0 | 0.00 | 0.91 | 0.00 | 81 | 1010.2 |
| 20260506215335 | 60 | 360 | 0.0 | 3.0 | 0.00 | 0.91 | 0.23 | 80 | 1010.1 |
| 20260506214340 | 60 | 360 | 1.0 | 5.0 | 0.00 | 0.91 | 0.23 | 80 | 1010.1 |
| 20260506213340 | 61 | 360 | 2.0 | 4.0 | 0.00 | 0.91 | 0.23 | 79 | 1010.1 |
| 20260506212351 | 61 | 360 | 2.0 | 8.0 | 0.00 | 0.91 | 0.23 | 78 | 1009.9 |
| 20260506211336 | 61 | 360 | 2.0 | 4.0 | 0.00 | 0.91 | 0.23 | 78 | 1009.9 |
| 20260506210343 | 61 | 360 | 2.0 | 4.0 | 0.00 | 0.91 | 0.23 | 78 | 1009.9 |
| 20260506205332 | 61 | 360 | 4.0 | 6.0 | 0.00 | 0.91 | 0.23 | 77 | 1009.8 |
| 20260506204333 | 62 | 360 | 2.0 | 4.0 | 0.00 | 0.91 | 0.23 | 76 | 1009.7 |
| 20260506203331 | 63 | 360 | 3.0 | 5.0 | 0.00 | 0.91 | 0.23 | 75 | 1009.5 |
| 20260506202335 | 63 | 360 | 0.0 | 2.0 | 0.00 | 0.91 | 0.23 | 73 | 1009.3 |
| 20260506201333 | 63 | 360 | 0.0 | 4.0 | 0.00 | 0.91 | 0.23 | 73 | 1009.2 |
| 20260506200338 | 63 | 360 | 4.0 | 9.0 | 0.00 | 0.91 | 0.23 | 72 | 1009.1 |
| 20260506195336 | 64 | 360 | 11.0 | 17.0 | 0.00 | 0.91 | 0.23 | 73 | 1008.9 |
| 20260506194339 | 64 | 360 | 11.0 | 17.0 | 0.00 | 0.91 | 0.23 | 75 | 1008.7 |
| 20260506193324 | 64 | 360 | 9.0 | 21.0 | 0.00 | 0.91 | 0.23 | 80 | 1008.5 |
| 20260506192333 | 65 | 360 | 15.0 | 23.0 | 0.00 | 0.91 | 0.23 | 79 | 1008.2 |
| 20260506191327 | 65 | 360 | 15.0 | 21.0 | 0.00 | 0.91 | 0.23 | 78 | 1008.1 |
| 20260506190327 | 65 | 360 | 12.0 | 18.0 | 0.00 | 0.91 | 0.23 | 78 | 1008.1 |
| 20260506185340 | 65 | 360 | 8.0 | 16.0 | 0.00 | 0.91 | 0.23 | 77 | 1008.0 |
| 20260506184340 | 65 | 360 | 10.0 | 17.0 | 0.00 | 0.91 | 0.23 | 77 | 1007.9 |
| 20260506183335 | 65 | 360 | 13.0 | 21.0 | 0.00 | 0.91 | 0.23 | 79 | 1007.8 |
| 20260506182336 | 64 | 360 | 16.0 | 24.0 | 0.00 | 0.91 | 0.23 | 79 | 1007.7 |
| 20260506181346 | 64 | 360 | 17.0 | 25.0 | 0.00 | 0.91 | 0.23 | 79 | 1007.6 |
| 20260506180330 | 64 | 360 | 18.0 | 25.0 | 0.00 | 0.91 | 0.23 | 80 | 1007.5 |
| 20260506175339 | 65 | 360 | 18.0 | 29.0 | 0.00 | 0.91 | 0.23 | 80 | 1007.4 |
| 20260506174326 | 65 | 360 | 18.0 | 28.0 | 0.00 | 0.91 | 0.23 | 80 | 1007.2 |
| 20260506173325 | 66 | 360 | 18.0 | 25.0 | 0.00 | 0.91 | 0.23 | 77 | 1007.0 |
| 20260506172333 | 66 | 360 | 15.0 | 24.0 | 0.00 | 0.91 | 0.23 | 75 | 1007.1 |
| 20260506171341 | 66 | 360 | 14.0 | 27.0 | 0.00 | 0.91 | 0.23 | 71 | 1007.1 |
| 20260506170325 | 67 | 360 | 17.0 | 26.0 | 0.00 | 0.91 | 0.23 | 69 | 1007.0 |
| 20260506165332 | 67 | 360 | 17.0 | 31.0 | 0.00 | 0.94 | 0.23 | 68 | 1006.9 |
| 20260506164341 | 67 | 360 | 18.0 | 25.0 | 0.00 | 0.94 | 0.23 | 69 | 1006.8 |
| 20260506163331 | 66 | 360 | 19.0 | 29.0 | 0.00 | 0.94 | 0.23 | 69 | 1006.8 |
| 20260506162330 | 67 | 360 | 20.0 | 29.0 | 0.00 | 0.94 | 0.23 | 70 | 1006.8 |
| 20260506161332 | 67 | 360 | 18.0 | 28.0 | 0.00 | 0.94 | 0.23 | 69 | 1006.6 |
| 20260506160346 | 67 | 360 | 19.0 | 28.0 | 0.00 | 0.94 | 0.23 | 70 | 1006.6 |
| 20260506155323 | 67 | 360 | 22.0 | 33.0 | 0.00 | 0.94 | 0.23 | 71 | 1006.5 |
| 20260506154338 | 67 | 360 | 21.0 | 29.0 | 0.00 | 0.94 | 0.23 | 72 | 1006.6 |
| 20260506153340 | 66 | 360 | 20.0 | 32.0 | 0.00 | 0.94 | 0.23 | 75 | 1006.5 |
| 20260506152324 | 67 | 360 | 20.0 | 29.0 | 0.00 | 0.94 | 0.23 | 74 | 1006.6 |
| 20260506151332 | 67 | 360 | 19.0 | 31.0 | 0.00 | 0.94 | 0.23 | 73 | 1006.5 |
| 20260506150344 | 66 | 360 | 20.0 | 32.0 | 0.00 | 0.94 | 0.23 | 76 | 1006.5 |
| 20260506145342 | 66 | 360 | 19.0 | 32.0 | 0.00 | 0.94 | 0.23 | 75 | 1006.6 |
| 20260506144333 | 66 | 360 | 21.0 | 34.0 | 0.00 | 0.94 | 0.23 | 77 | 1006.7 |
| 20260506143328 | 65 | 360 | 23.0 | 38.0 | 0.00 | 0.94 | 0.23 | 78 | 1006.7 |
| 20260506142328 | 65 | 360 | 23.0 | 37.0 | 0.00 | 0.94 | 0.23 | 80 | 1006.6 |
| 20260506141336 | 65 | 360 | 27.0 | 38.0 | 0.00 | 0.94 | 0.23 | 79 | 1006.9 |
| 20260506140341 | 66 | 360 | 22.0 | 36.0 | 0.00 | 0.94 | 0.23 | 77 | 1006.8 |
| 20260506135325 | 65 | 360 | 21.0 | 38.0 | 0.00 | 0.94 | 0.23 | 77 | 1006.8 |
| 20260506134324 | 65 | 360 | 26.0 | 38.0 | 0.00 | 0.94 | 0.23 | 76 | 1006.8 |
| 20260506133338 | 66 | 360 | 20.0 | 31.0 | 0.00 | 0.94 | 0.23 | 75 | 1006.9 |
| 20260506132348 | 67 | 360 | 18.0 | 26.0 | 0.00 | 0.94 | 0.23 | 72 | 1006.9 |
| 20260506131336 | 67 | 360 | 22.0 | 32.0 | 0.00 | 0.94 | 0.23 | 72 | 1007.0 |
| 20260506130336 | 67 | 360 | 16.0 | 27.0 | 0.00 | 0.94 | 0.23 | 72 | 1007.1 |
| 20260506125328 | 67 | 360 | 17.0 | 33.0 | 0.00 | 0.94 | 0.23 | 74 | 1007.0 |
| 20260506124331 | 68 | 360 | 14.0 | 29.0 | 0.00 | 0.94 | 0.23 | 67 | 1007.0 |
| 20260506123339 | 68 | 360 | 17.0 | 25.0 | 0.00 | 0.94 | 0.23 | 66 | 1007.1 |
| 20260506122338 | 67 | 360 | 15.0 | 27.0 | 0.00 | 0.94 | 0.23 | 71 | 1007.1 |
| 20260506121339 | 66 | 360 | 19.0 | 30.0 | 0.00 | 0.94 | 0.23 | 72 | 1007.0 |
| 20260506120325 | 66 | 360 | 21.0 | 32.0 | 0.00 | 0.94 | 0.23 | 75 | 1007.1 |
| 20260506115335 | 65 | 360 | 22.0 | 40.0 | 0.00 | 0.94 | 0.23 | 78 | 1007.2 |
| 20260506114339 | 65 | 360 | 31.0 | 40.0 | 0.00 | 0.94 | 0.23 | 78 | 1007.3 |
| 20260506113330 | 65 | 360 | 22.0 | 37.0 | 0.00 | 0.94 | 0.23 | 77 | 1007.3 |
| 20260506112337 | 65 | 360 | 25.0 | 36.0 | 0.00 | 0.94 | 0.23 | 76 | 1007.2 |
| 20260506111347 | 66 | 360 | 21.0 | 32.0 | 0.00 | 0.94 | 0.23 | 73 | 1007.5 |
| 20260506110330 | 65 | 360 | 19.0 | 41.0 | 0.00 | 0.94 | 0.23 | 74 | 1007.5 |
| 20260506105342 | 65 | 360 | 24.0 | 31.0 | 0.00 | 0.94 | 0.23 | 78 | 1007.5 |
| 20260506104327 | 65 | 360 | 18.0 | 31.0 | 0.00 | 0.94 | 0.23 | 77 | 1007.6 |
| 20260506103328 | 65 | 360 | 19.0 | 29.0 | 0.00 | 0.94 | 0.23 | 77 | 1007.7 |
| 20260506102333 | 65 | 360 | 18.0 | 29.0 | 0.00 | 0.94 | 0.23 | 77 | 1007.8 |
| 20260506101341 | 65 | 360 | 16.0 | 27.0 | 0.00 | 0.94 | 0.23 | 78 | 1007.8 |
| 20260506100326 | 64 | 360 | 17.0 | 27.0 | 0.00 | 0.94 | 0.23 | 78 | 1007.9 |
| 20260506095324 | 64 | 360 | 18.0 | 27.0 | 0.00 | 0.94 | 0.23 | 78 | 1007.8 |
| 20260506094338 | 64 | 360 | 20.0 | 27.0 | 0.00 | 0.94 | 0.23 | 77 | 1007.8 |
| 20260506093340 | 64 | 360 | 19.0 | 27.0 | 0.00 | 0.94 | 0.23 | 79 | 1007.9 |
| 20260506092322 | 63 | 360 | 17.0 | 25.0 | 0.00 | 0.94 | 0.23 | 80 | 1007.9 |
| 20260506091333 | 63 | 360 | 19.0 | 27.0 | 0.00 | 0.94 | 0.23 | 78 | 1007.9 |
| 20260506090335 | 63 | 360 | 16.0 | 21.0 | 0.00 | 0.94 | 0.23 | 77 | 1007.8 |
| 20260506085331 | 64 | 360 | 14.0 | 18.0 | 0.00 | 1.02 | 0.23 | 75 | 1008.0 |
| 20260506084332 | 64 | 360 | 10.0 | 15.0 | 0.00 | 1.02 | 0.23 | 77 | 1008.0 |
| 20260506083345 | 64 | 360 | 9.0 | 16.0 | 0.00 | 1.02 | 0.23 | 77 | 1008.0 |
| 20260506082326 | 63 | 360 | 11.0 | 15.0 | 0.00 | 1.02 | 0.23 | 76 | 1008.0 |
| 20260506081340 | 63 | 360 | 10.0 | 15.0 | 0.00 | 1.02 | 0.23 | 76 | 1008.0 |
| 20260506080332 | 63 | 360 | 11.0 | 16.0 | 0.00 | 1.02 | 0.23 | 77 | 1008.0 |
| 20260506073344 | 63 | 360 | 8.0 | 15.0 | 0.00 | 1.02 | 0.23 | 77 | 1007.9 |
| 20260506072327 | 62 | 360 | 9.0 | 14.0 | 0.00 | 1.02 | 0.23 | 80 | 1007.9 |
| 20260506071336 | 62 | 360 | 5.0 | 10.0 | 0.00 | 1.02 | 0.23 | 82 | 1007.8 |
| 20260506070327 | 62 | 360 | 4.0 | 11.0 | 0.00 | 1.02 | 0.23 | 82 | 1007.6 |